KG6SIB Weather Reports


Display with metric or nautical units.
time (UTC)temp
F
wind
direction
speed
MPH
gust
MPH
rain 1hr
in
rain 24hr
in
rain mn
in
humidity
%
barometer
mb
20260509032137 59 5 4.0 4.0 0.00 0.00 0.00 77 1016.2
20260509031636 60 42 4.0 4.0 0.00 0.00 0.00 76 1016.5
20260509031136 60 215 0.0 3.0 0.00 0.00 0.00 76 1016.4
20260509030636 61 215 0.0 4.0 0.00 0.00 0.00 77 1016.3
20260509025636 62 211 3.0 4.0 0.00 0.00 0.00 75 1015.5
20260509025136 62 211 3.0 3.0 0.00 0.00 0.00 75 1015.4
20260509024636 63 211 2.0 3.0 0.00 0.00 0.00 74 1015.5
20260509024136 63 205 0.0 0.0 0.00 0.00 0.00 74 1015.4
20260509023636 64 205 0.0 0.0 0.00 0.00 0.00 72 1015.4
20260509023136 65 205 0.0 2.0 0.00 0.00 0.00 71 1015.6
20260509022636 65 204 0.0 2.0 0.00 0.00 0.00 70 1015.6
20260509022135 66 203 0.0 3.0 0.00 0.00 0.00 69 1015.5
20260509021636 66 204 2.0 3.0 0.00 0.00 0.00 69 1015.5
20260509021135 67 239 0.0 3.0 0.00 0.00 0.00 68 1015.7
20260509020635 68 239 2.0 3.0 0.00 0.00 0.00 67 1015.6
20260509020136 68 240 2.0 2.0 0.00 0.00 0.00 65 1015.6
20260509015635 69 240 0.0 4.0 0.00 0.00 0.00 64 1014.7
20260509015135 69 241 1.0 4.0 0.00 0.00 0.00 63 1014.7
20260509014635 70 246 1.0 4.0 0.00 0.00 0.00 62 1014.7
20260509014135 70 247 0.0 4.0 0.00 0.00 0.00 61 1014.8
20260509013635 71 244 1.0 4.0 0.00 0.00 0.00 60 1015.0
20260509012635 71 239 2.0 7.0 0.00 0.00 0.00 58 1015.0
20260509011635 72 229 0.0 9.0 0.00 0.00 0.00 56 1015.0
20260509011135 73 224 6.0 10.0 0.00 0.00 0.00 55 1015.2
20260509010635 73 220 3.0 10.0 0.00 0.00 0.00 55 1015.2
20260509010135 74 256 2.0 8.0 0.00 0.00 0.00 54 1015.3
20260509005635 74 236 3.0 11.0 0.00 0.00 0.00 53 1014.8
20260509005135 75 256 3.0 11.0 0.00 0.00 0.00 51 1014.8
20260509004635 75 220 3.0 13.0 0.00 0.00 0.00 50 1014.8
20260509004134 76 244 1.0 13.0 0.00 0.00 0.00 49 1015.1
20260509003635 76 229 4.0 13.0 0.00 0.00 0.00 49 1015.0
20260509003135 77 261 10.0 13.0 0.00 0.00 0.00 47 1015.0
20260509002634 77 205 3.0 10.0 0.00 0.00 0.00 45 1015.1
20260509002135 78 216 4.0 10.0 0.00 0.00 0.00 45 1015.3
20260509001635 78 213 6.0 8.0 0.00 0.00 0.00 44 1015.4
20260509000634 79 227 5.0 9.0 0.00 0.00 0.00 40 1015.3
20260508235635 79 221 1.0 14.0 0.00 0.00 0.00 39 1015.4
20260508235134 80 192 4.0 14.0 0.00 0.00 0.00 39 1015.7
20260508234634 80 241 9.0 13.0 0.00 0.00 0.00 38 1015.7
20260508234134 80 212 6.0 13.0 0.00 0.00 0.00 38 1015.7
20260508233634 81 214 7.0 13.0 0.00 0.00 0.00 36 1015.7
20260508233134 81 211 5.0 13.0 0.00 0.00 0.00 36 1015.6
20260508232634 81 195 3.0 12.0 0.00 0.00 0.00 34 1015.7
20260508232134 81 235 3.0 13.0 0.00 0.00 0.00 35 1015.8
20260508231634 82 305 1.0 13.0 0.00 0.00 0.00 35 1016.2
20260508231134 82 238 5.0 12.0 0.00 0.00 0.00 37 1016.2
20260508230634 82 217 2.0 13.0 0.00 0.00 0.00 39 1016.2
20260508230134 82 219 7.0 16.0 0.00 0.00 0.00 35 1016.4
20260508225634 83 244 7.0 16.0 0.00 0.00 0.00 36 1016.4
20260508225134 83 198 4.0 11.0 0.00 0.00 0.00 37 1016.3
20260508224633 82 202 6.0 14.0 0.00 0.00 0.00 37 1016.4
20260508222633 82 251 4.0 11.0 0.00 0.00 0.00 31 1016.5
20260508222133 83 252 7.0 11.0 0.00 0.00 0.00 34 1016.5
20260508221633 83 229 2.0 17.0 0.00 0.00 0.00 32 1016.6
20260508221133 83 202 2.0 17.0 0.00 0.00 0.00 29 1016.6
20260508220633 83 311 0.0 13.0 0.00 0.00 0.00 30 1016.7
20260508220133 83 245 8.0 13.0 0.00 0.00 0.00 29 1016.7
20260508215633 83 239 8.0 13.0 0.00 0.00 0.00 29 1017.0
20260508215133 83 142 0.0 14.0 0.00 0.00 0.00 29 1017.0
20260508214633 83 205 6.0 16.0 0.00 0.00 0.00 29 1017.1
20260508214133 83 225 8.0 16.0 0.00 0.00 0.00 28 1017.0
20260508213633 83 237 7.0 13.0 0.00 0.00 0.00 30 1017.2
20260508213133 83 202 8.0 13.0 0.00 0.00 0.00 29 1017.2
20260508212633 83 229 8.0 13.0 0.00 0.00 0.00 31 1017.3
20260508212132 83 219 8.0 13.0 0.00 0.00 0.00 29 1017.3
20260508211633 84 250 2.0 13.0 0.00 0.00 0.00 29 1017.3
20260508211132 84 232 7.0 13.0 0.00 0.00 0.00 33 1017.5
20260508210632 83 211 4.0 10.0 0.00 0.00 0.00 33 1017.4
20260508205632 83 229 3.0 14.0 0.00 0.00 0.00 33 1017.4
20260508205132 83 355 2.0 14.0 0.00 0.00 0.00 32 1017.5
20260508204632 83 214 6.0 14.0 0.00 0.00 0.00 33 1017.4
20260508203632 83 195 8.0 12.0 0.00 0.00 0.00 34 1017.6
20260508203132 83 235 7.0 12.0 0.00 0.00 0.00 32 1017.3
20260508202632 83 172 3.0 11.0 0.00 0.00 0.00 35 1017.5
20260508202132 83 215 7.0 11.0 0.00 0.00 0.00 36 1017.6
20260508201632 82 217 2.0 11.0 0.00 0.00 0.00 34 1017.3
20260508201132 83 249 4.0 9.0 0.00 0.00 0.00 34 1017.6
20260508200632 82 265 6.0 9.0 0.00 0.00 0.00 36 1017.4
20260508200132 82 212 4.0 11.0 0.00 0.00 0.00 34 1017.3
20260508195632 83 248 8.0 13.0 0.00 0.00 0.00 35 1017.7
20260508195132 83 262 11.0 13.0 0.00 0.00 0.00 35 1017.6
20260508194632 83 235 6.0 12.0 0.00 0.00 0.00 33 1017.6
20260508193632 82 245 7.0 13.0 0.00 0.00 0.00 38 1018.0
20260508192631 82 217 5.0 10.0 0.00 0.00 0.00 36 1017.9
20260508192132 82 255 9.0 12.0 0.00 0.00 0.00 38 1018.0
20260508191631 82 218 7.0 15.0 0.00 0.00 0.00 38 1018.0
20260508191132 82 252 10.0 15.0 0.00 0.00 0.00 39 1018.0
20260508190631 82 253 5.0 12.0 0.00 0.00 0.00 38 1018.1
20260508190131 83 250 8.0 13.0 0.00 0.00 0.00 36 1018.1
20260508185631 83 232 10.0 13.0 0.00 0.00 0.00 33 1018.0
20260508185131 83 250 2.0 12.0 0.00 0.00 0.00 32 1018.1
20260508184631 83 271 8.0 13.0 0.00 0.00 0.00 32 1018.1
20260508184131 82 260 2.0 13.0 0.00 0.00 0.00 31 1018.2
20260508183631 82 225 3.0 14.0 0.00 0.00 0.00 29 1018.0
20260508183131 83 244 9.0 14.0 0.00 0.00 0.00 30 1018.1
20260508182631 83 198 8.0 12.0 0.00 0.00 0.00 29 1017.9
20260508182131 83 231 6.0 12.0 0.00 0.00 0.00 29 1018.0
20260508181631 83 231 5.0 11.0 0.00 0.00 0.00 30 1018.1
20260508181130 82 263 7.0 14.0 0.00 0.00 0.00 30 1018.1
20260508180631 82 265 10.0 14.0 0.00 0.00 0.00 29 1018.1
20260508180131 82 233 3.0 13.0 0.00 0.00 0.00 31 1018.0
20260508175631 82 212 5.0 12.0 0.00 0.00 0.00 27 1018.2
20260508175130 81 211 2.0 12.0 0.00 0.00 0.00 29 1018.0
20260508174631 82 196 7.0 11.0 0.00 0.00 0.00 28 1018.3
20260508174130 82 267 3.0 13.0 0.00 0.00 0.00 29 1018.3
20260508173630 81 235 4.0 13.0 0.00 0.00 0.00 30 1018.0
20260508173130 82 218 5.0 10.0 0.00 0.00 0.00 30 1018.3
20260508172631 82 223 4.0 12.0 0.00 0.00 0.00 32 1018.3
20260508171130 81 248 4.0 11.0 0.00 0.00 0.00 30 1017.9
20260508170630 80 269 1.0 13.0 0.00 0.00 0.00 36 1018.0
20260508170130 79 248 5.0 13.0 0.00 0.00 0.00 30 1017.6
20260508165629 79 215 2.0 9.0 0.00 0.00 0.00 39 1018.0
20260508165129 78 253 7.0 9.0 0.00 0.00 0.00 43 1017.8
20260508164630 77 227 4.0 9.0 0.00 0.00 0.00 44 1017.7
20260508164130 77 237 0.0 8.0 0.00 0.00 0.00 42 1017.6
20260508163129 76 210 2.0 8.0 0.00 0.00 0.00 44 1017.4
20260508162629 75 250 3.0 8.0 0.00 0.00 0.00 46 1017.4
20260508162129 75 217 1.0 8.0 0.00 0.00 0.00 45 1017.5
20260508161629 74 219 3.0 8.0 0.00 0.00 0.00 47 1017.2
20260508161129 74 240 5.0 5.0 0.00 0.00 0.00 46 1017.3
20260508160629 73 244 3.0 6.0 0.00 0.00 0.00 50 1017.3
20260508160129 72 225 2.0 6.0 0.00 0.00 0.00 51 1017.1
20260508155629 72 204 0.0 5.0 0.00 0.00 0.00 49 1017.2
20260508155129 71 198 2.0 5.0 0.00 0.00 0.00 50 1017.2
20260508154629 70 199 1.0 4.0 0.00 0.00 0.00 52 1017.0
20260508154129 70 221 0.0 5.0 0.00 0.00 0.00 53 1017.0
20260508153628 69 227 1.0 5.0 0.00 0.00 0.00 54 1017.0
20260508152629 67 236 2.0 7.0 0.00 0.00 0.00 54 1016.8
20260508152128 66 228 0.0 3.0 0.00 0.00 0.00 57 1016.7
20260508151628 66 237 0.0 3.0 0.00 0.00 0.00 59 1016.6
20260508151129 65 239 0.0 3.0 0.00 0.00 0.00 61 1016.6
20260508150629 64 240 2.0 2.0 0.00 0.00 0.00 61 1016.5
20260508150128 63 242 0.0 2.0 0.00 0.00 0.00 62 1016.3
20260508145628 63 242 0.0 4.0 0.00 0.00 0.00 63 1016.8
20260508145128 62 242 1.0 4.0 0.00 0.00 0.00 64 1016.8
20260508144628 61 286 0.0 0.0 0.00 0.00 0.00 72 1016.5
20260508144129 60 58 0.0 0.0 0.00 0.00 0.00 71 1016.5
20260508143629 59 59 0.0 3.0 0.00 0.00 0.00 75 1016.3
20260508143128 59 58 0.0 4.0 0.00 0.00 0.00 74 1016.2
20260508142628 58 61 2.0 4.0 0.00 0.00 0.00 75 1016.2
20260508142132 57 35 3.0 5.0 0.00 0.00 0.00 78 1015.9
20260508141628 56 51 2.0 6.0 0.00 0.00 0.00 78 1015.9
20260508141128 55 73 5.0 6.0 0.00 0.00 0.00 79 1015.8
20260508140628 54 69 4.0 6.0 0.00 0.00 0.00 80 1015.8
20260508140128 53 29 3.0 6.0 0.00 0.00 0.00 81 1015.5
20260508134628 50 78 4.0 8.0 0.00 0.00 0.00 83 1015.8
20260508134127 49 53 5.0 8.0 0.00 0.00 0.00 83 1015.7
20260508133628 49 62 5.0 7.0 0.00 0.00 0.00 83 1015.6
20260508133128 48 44 4.0 8.0 0.00 0.00 0.00 83 1015.6
20260508132627 48 55 4.0 8.0 0.00 0.00 0.00 83 1015.7
20260508132129 48 24 5.0 8.0 0.00 0.00 0.00 82 1015.5
20260508131627 48 57 5.0 7.0 0.00 0.00 0.00 82 1015.6
20260508131127 48 44 4.0 7.0 0.00 0.00 0.00 82 1015.5
20260508130627 48 67 6.0 7.0 0.00 0.00 0.00 81 1015.5
20260508130128 48 47 4.0 8.0 0.00 0.00 0.00 81 1015.5
20260508125629 48 57 7.0 8.0 0.00 0.00 0.00 81 1015.8
20260508124627 48 51 5.0 8.0 0.00 0.00 0.00 80 1015.8
20260508124127 48 41 5.0 8.0 0.00 0.00 0.00 80 1015.8
20260508123627 48 69 6.0 8.0 0.00 0.00 0.00 80 1015.8
20260508123127 48 75 7.0 8.0 0.00 0.00 0.00 80 1015.8
20260508122627 48 57 4.0 9.0 0.00 0.00 0.00 80 1015.9
20260508122127 48 78 5.0 9.0 0.00 0.00 0.00 80 1015.8
20260508121627 48 70 6.0 8.0 0.00 0.00 0.00 80 1015.7
20260508121127 48 62 5.0 8.0 0.00 0.00 0.00 79 1015.7
20260508120627 48 64 8.0 8.0 0.00 0.00 0.00 79 1015.8
20260508120127 48 36 5.0 6.0 0.00 0.00 0.00 79 1015.7
20260508115626 48 52 5.0 7.0 0.00 0.00 0.00 79 1016.2
20260508114626 48 44 5.0 6.0 0.00 0.00 0.00 79 1016.2
20260508114127 48 40 5.0 6.0 0.00 0.00 0.00 78 1016.2
20260508113627 48 46 5.0 7.0 0.00 0.00 0.00 79 1016.2
20260508113127 48 45 4.0 7.0 0.00 0.00 0.00 79 1016.1
20260508112626 48 51 5.0 6.0 0.00 0.00 0.00 79 1016.1
20260508112126 48 38 5.0 7.0 0.00 0.00 0.00 79 1016.0
20260508111634 48 33 5.0 7.0 0.00 0.00 0.00 79 1016.1
20260508111126 48 73 4.0 7.0 0.00 0.00 0.00 79 1016.0
20260508110626 48 43 4.0 8.0 0.00 0.00 0.00 80 1016.1
20260508110126 48 32 5.0 8.0 0.00 0.00 0.00 80 1016.2
20260508105626 48 51 4.0 7.0 0.00 0.00 0.00 80 1016.6
20260508105126 48 45 4.0 7.0 0.00 0.00 0.00 80 1016.7
20260508104626 48 53 5.0 8.0 0.00 0.00 0.00 80 1016.7
20260508104126 48 51 4.0 8.0 0.00 0.00 0.00 80 1016.7
20260508103626 48 40 5.0 6.0 0.00 0.00 0.00 80 1016.8
20260508103126 48 28 5.0 6.0 0.00 0.00 0.00 80 1016.9
20260508102626 48 50 5.0 6.0 0.00 0.00 0.00 80 1016.9
20260508101625 49 49 5.0 7.0 0.00 0.00 0.00 80 1017.0
20260508101126 49 52 5.0 7.0 0.00 0.00 0.00 80 1016.9
20260508100626 49 79 4.0 8.0 0.00 0.00 0.00 80 1016.9
20260508100125 49 74 3.0 8.0 0.00 0.00 0.00 79 1017.0
20260508095625 49 34 5.0 7.0 0.00 0.00 0.00 79 1017.0
20260508095125 49 43 4.0 6.0 0.00 0.00 0.00 79 1017.0
20260508094625 49 43 5.0 7.0 0.00 0.00 0.00 79 1017.0
20260508093626 49 66 4.0 6.0 0.00 0.00 0.00 78 1016.9
20260508093126 49 67 6.0 7.0 0.00 0.00 0.00 78 1016.9
20260508091625 49 80 8.0 8.0 0.00 0.00 0.00 78 1017.1
20260508090125 49 76 4.0 9.0 0.00 0.00 0.00 79 1017.3
20260508085625 49 60 4.0 9.0 0.00 0.00 0.00 79 1017.4
20260508085124 49 19 5.0 7.0 0.00 0.00 0.00 78 1017.4
20260508084625 49 59 4.0 7.0 0.00 0.00 0.00 78 1017.6
20260508083625 49 65 2.0 8.0 0.00 0.00 0.00 78 1017.6
20260508083124 49 61 3.0 5.0 0.00 0.00 0.00 78 1017.7
20260508082625 49 45 3.0 5.0 0.00 0.00 0.00 77 1017.6
20260508082124 49 30 2.0 6.0 0.00 0.00 0.00 77 1017.7
20260508081624 50 26 4.0 6.0 0.00 0.00 0.00 76 1017.7
20260508081125 50 50 4.0 6.0 0.00 0.00 0.00 76 1017.7
20260508080625 50 61 2.0 6.0 0.00 0.00 0.00 76 1017.8
20260508080125 50 30 3.0 7.0 0.00 0.00 0.00 76 1017.7
20260508075625 50 46 5.0 7.0 0.00 0.00 0.00 75 1017.7
20260508075125 50 32 3.0 6.0 0.00 0.00 0.00 75 1017.8
20260508074624 50 64 3.0 7.0 0.00 0.00 0.00 75 1017.8
20260508074124 50 51 4.0 7.0 0.00 0.00 0.00 75 1018.0
20260508073124 50 44 6.0 6.0 0.00 0.00 0.00 75 1018.0
20260508072124 50 59 5.0 8.0 0.00 0.00 0.00 75 1018.1
20260508071624 50 38 4.0 8.0 0.00 0.00 0.00 74 1018.0
20260508070624 50 53 4.0 6.0 0.00 0.00 0.00 74 1018.0
20260508070155 50 36 5.0 7.0 0.00 0.00 0.00 74 1018.1
20260508065624 51 34 5.0 7.0 0.00 0.00 0.00 73 1018.1
20260508065124 51 46 4.0 6.0 0.00 0.00 0.00 73 1018.2
20260508064124 51 63 5.0 6.0 0.00 0.00 0.00 73 1018.3
20260508063123 51 70 6.0 7.0 0.00 0.00 0.00 72 1018.3
20260508062623 51 61 5.0 7.0 0.00 0.00 0.00 72 1018.3
20260508062123 52 29 5.0 7.0 0.00 0.00 0.00 73 1018.5
20260508061623 52 59 5.0 6.0 0.00 0.00 0.00 71 1018.5
20260508061124 52 71 5.0 6.0 0.00 0.00 0.00 72 1018.4
20260508060623 52 40 4.0 7.0 0.00 0.00 0.00 71 1018.3
20260508060153 52 69 4.0 7.0 0.00 0.00 0.00 71 1018.3
20260508055623 52 53 5.0 6.0 0.00 0.00 0.00 72 1018.3
20260508055123 52 49 5.0 6.0 0.00 0.00 0.00 71 1018.3
20260508054623 52 46 5.0 6.0 0.00 0.00 0.00 72 1018.2
20260508054123 52 36 4.0 7.0 0.00 0.00 0.00 72 1018.2
20260508053623 52 49 3.0 7.0 0.00 0.00 0.00 72 1018.3
20260508053123 52 58 5.0 6.0 0.00 0.00 0.00 73 1018.4
20260508052623 52 55 3.0 5.0 0.00 0.00 0.00 73 1018.4
20260508052122 52 60 3.0 5.0 0.00 0.00 0.00 74 1018.4
20260508051122 53 53 2.0 5.0 0.00 0.00 0.00 75 1018.6
20260508050623 53 32 3.0 4.0 0.00 0.00 0.00 76 1018.6
20260508050153 53 37 2.0 4.0 0.00 0.00 0.00 76 1018.6
20260508045623 53 249 2.0 3.0 0.00 0.00 0.00 77 1018.4
20260508045123 54 242 0.0 3.0 0.00 0.00 0.00 77 1018.4
20260508044623 54 242 0.0 0.0 0.00 0.00 0.00 77 1018.4
20260508044122 54 242 0.0 0.0 0.00 0.00 0.00 75 1018.4
20260508043652 55 242 0.0 0.0 0.00 0.00 0.00 75 1018.5
20260508043152 55 242 0.0 0.0 0.00 0.00 0.00 74 1018.4
20260508042652 55 242 0.0 0.0 0.00 0.00 0.00 72 1018.4
20260508042152 55 242 0.0 0.0 0.00 0.00 0.00 64 1018.2
20260508041652 55 242 0.0 0.0 0.00 0.00 0.00 64 1018.1
20260508041152 55 242 0.0 0.0 0.00 0.00 0.00 61 1018.0
20260508040652 55 242 0.0 0.0 0.00 0.00 0.00 65 1017.8
20260508040152 55 241 0.0 0.0 0.00 0.00 0.00 66 1017.8
20260508035652 55 241 0.0 0.0 0.00 0.00 0.00 67 1017.6
20260508035152 55 241 0.0 0.0 0.00 0.00 0.00 66 1017.5
20260508034652 55 241 0.0 0.0 0.00 0.00 0.00 68 1017.5
20260508034152 55 241 0.0 0.0 0.00 0.00 0.00 71 1017.5
20260508033651 55 240 0.0 0.0 0.00 0.00 0.00 77 1017.3
20260508033152 56 238 0.0 0.0 0.00 0.00 0.00 79 1017.4
20260508032652 57 238 0.0 0.0 0.00 0.00 0.00 80 1017.5
20260508032151 57 238 0.0 0.0 0.00 0.00 0.00 80 1017.5